Faith, SD

2:48 AM MDT on March 24, 2017 (GMT -0600)
Faith

Weather History for KD07 - November, 2013

Change the Weather History Date:

Sunday, November 17, 2013

  Actual Average Record
Temperature  
Mean Temperature 34 °F 31 °F  
Max Temperature 41 °F 42 °F 63 °F (2001)
Min Temperature 26 °F 21 °F 6 °F (2000)
Degree Days  
Heating Degree Days 31 34  
Month to date heating degree days 492 496  
Since 1 July heating degree days 1274 1295  
Cooling Degree Days 0 0  
Month to date cooling degree days 0 0  
Year to date cooling degree days 720 635  
Moisture  
Dew Point 25 °F    
Average Humidity 71    
Maximum Humidity 92    
Minimum Humidity 50    
Precipitation  
Precipitation 0.02 in 0.01 in 0.15 in (2016)
Month to date precipitation 0.22 0.48  
Year to date precipitation 16.33 17.21  
Sea Level Pressure  
Sea Level Pressure 29.80 in    
Wind  
Wind Speed 11 mph (WNW)    
Max Wind Speed 29 mph    
Max Gust Speed 60 mph    
T = Trace of Precipitation, MM = Missing Value Source: NWS Daily Summary

Daily Weather History Graph

Daily Weather History Graph

Search for Another Location

Airport or City:

Trip Planner

Search our weather history database for the weather conditions in past years. The results will help you decide how hot, cold, wet, or windy it might be!

Date:

Astronomy

Nov. 17, 2013 Rise Set
Actual Time 6:48 AM MST 4:16 PM MST
Civil Twilight 6:16 AM MST 4:48 PM MST
Nautical Twilight 5:41 AM MST 5:24 PM MST
Astronomical Twilight 5:06 AM MST 5:59 PM MST
Moon 4:35 PM MST (11/17) 6:44 AM MST (11/17)
Length of Visible Light 10h 31m
Length of Day
9h 27m
Full, 100% of the Moon is Illuminated
Nov 17
Full
Nov 25
Last Quarter
Dec 2
New
Dec 9
First Quarter
Dec 17
Full

Hourly Weather History & Observations

Time (MST) Temp. Windchill Dew Point Humidity Pressure Visibility Wind Dir Wind Speed Gust Speed Precip Events Conditions
12:56 AM 32.0 °F 28.7 °F 25.0 °F 75% 29.44 in - West 3.5 mph - N/A   Unknown
1:56 AM 33.1 °F - 26.1 °F 75% 29.44 in - Calm Calm - N/A   Unknown
2:56 AM 26.1 °F - 21.9 °F 84% 29.47 in - Calm Calm - N/A   Unknown
3:56 AM 27.0 °F 20.5 °F 24.1 °F 89% 29.49 in - NW 5.8 mph - N/A   Unknown
4:56 AM 26.1 °F 20.5 °F 23.0 °F 88% 29.52 in - WNW 4.6 mph - N/A   Unknown
5:56 AM 27.0 °F 17.3 °F 24.1 °F 89% 29.55 in - WNW 10.4 mph - N/A   Unknown
6:56 AM 28.9 °F 18.6 °F 26.1 °F 89% 29.62 in - WNW 12.7 mph - N/A   Unknown
7:56 AM 32.0 °F 21.2 °F 28.9 °F 88% 29.68 in - NW 16.1 mph - N/A   Unknown
8:56 AM 33.1 °F 21.9 °F 30.9 °F 92% 29.72 in - NW 18.4 mph - 0.01 in   Unknown
9:56 AM 35.1 °F 24.5 °F 32.0 °F 89% 29.77 in - WNW 18.4 mph - N/A   Unknown
10:56 AM 35.1 °F 22.7 °F 30.9 °F 85% 29.81 in - WNW 25.3 mph 32.2 mph N/A   Unknown
11:56 AM 37.9 °F 27.3 °F 30.0 °F 73% 29.82 in - WNW 21.9 mph - N/A   Unknown
12:56 PM 39.9 °F 29.7 °F 28.0 °F 63% 29.85 in - WNW 23.0 mph 28.8 mph N/A   Unknown
1:56 PM 41.0 °F 32.2 °F 26.1 °F 55% 29.87 in - NW 18.4 mph - N/A   Unknown
2:56 PM 39.9 °F 29.7 °F 23.0 °F 51% 29.91 in - WNW 23.0 mph 28.8 mph N/A   Unknown
3:56 PM 37.0 °F 30.4 °F 23.0 °F 57% 29.96 in - NW 9.2 mph - 0.01 in   Unknown
4:56 PM 30.9 °F 24.3 °F 21.9 °F 69% 30.00 in - West 6.9 mph - N/A   Unknown
5:56 PM 28.9 °F 21.1 °F 21.9 °F 75% 30.01 in - WNW 8.1 mph - N/A   Unknown
6:56 PM 28.0 °F 22.8 °F 21.0 °F 75% 30.02 in - West 4.6 mph - N/A   Unknown
7:56 PM 30.0 °F 21.7 °F 24.1 °F 79% 30.02 in - West 9.2 mph - N/A   Unknown
8:56 PM 30.0 °F 23.2 °F 24.1 °F 79% 30.04 in - WNW 6.9 mph - N/A   Unknown
9:56 PM 30.9 °F 24.3 °F 24.1 °F 76% 30.04 in - West 6.9 mph - N/A   Unknown
10:56 PM 30.0 °F 25.2 °F 23.0 °F 75% 30.07 in - SW 4.6 mph - N/A   Unknown
11:56 PM 30.0 °F 22.4 °F 24.1 °F 79% 30.08 in - West 8.1 mph - N/A   Unknown